Weather in Ardatov

Russia / Republic of Mordovia     54°45′39″N   46°16′02″E
temp.,
°C
wind,
m/s
gust,
m/s
humid.,
%
clouds,
%
prec.,
mm/h
press.,
hPa
HPBL,
m
28 june, tue
tue2800:00+16nne239533 0.3 101547
03:00+14nne35940 0.3 1016114
06:00+13ne47903 0.0 1017348
09:00+15nne577011 0.0 10181056
12:00+17nne56510 0.0 10191577
15:00+18n67484 0.0 10192050
18:00+16nne58605 0.0 1019654
21:00+11n22705 0.0 102115
29 june, wed
wed2900:00+9nnw12733 0.0 102110
03:00+7n22795 0.0 102212
06:00+11n23716 0.0 1022188
09:00+15n355335 0.0 1022969
12:00+18nnw564924 0.0 10211802
15:00+18nnw55476 0.0 10201898
18:00+18nw36605 0.0 1018334
21:00+12wnw33774 0.0 101833
30 june, thu
thu3000:00+10wnw228699 0.0 101825
03:00+10w33807 0.0 101750
06:00+12wnw387474 0.0 1016248
09:00+17nw695537 0.0 10151094
12:00+19nnw784712 0.0 10141642
15:00+18nnw5955100 0.0 10131070
18:00+18n4863100 0.0 1013340
21:00+13nne376771 0.0 1015142
1 july, fri
fri100:00+9n227636 0.0 101611
03:00+7n22835 0.0 101815
06:00+10n49725 0.0 1018361
09:00+14nne68575 0.0 10181274
12:00+17nne685179 0.0 10181915
15:00+17nne4754100 0.0 10181684
18:00+17nnw246323 0.0 1018273
21:00+12nw22685 0.0 101811
2 july, sat
sat200:00+11w22705 0.0 101811
03:00+9w22840 0.0 101822
06:00+13w36755 0.0 1018173
09:00+19wnw466010 0.0 1017578
12:00+23wnw454997 0.0 10151425
15:00+22nw345797 0.0 1014822
18:00+23sw486937 0.0 1012365
21:00+15e239797 6.2 1014123